Regional Weather Roundup
Issued by NWS

Home | Current Version | Previous Version | Text Only | Print | Product List | Glossary On
Versions: 1 2 3 4 5 6 7 8 9 10 11 12 13 14 15 16 17 18 19 20 21 22 23 24 25 26 27 28 29 30 31 32 33 34 35 36 37 38 39 40 41 42 43 44 45 46 47 48 49 50
000
ASUS43 KLSX 261207
RWRMO

WEATHER SUMMARY FOR MISSOURI
NATIONAL WEATHER SERVICE SPRINGFIELD MO
600 AM CST THU FEB 26 2015

NOTE: "FAIR" INDICATES FEW OR NO CLOUDS BELOW 12,000 FEET WITH NO
       SIGNIFICANT WEATHER AND/OR OBSTRUCTIONS TO VISIBILITY.
       CURRENT SKY AND/OR WEATHER CONDITIONS ARE NOT AVAILABLE FOR
       CHILLICOTHE AND FARMINGTON.

MOZ001>031-035>038-043-044-053-054-261300-
...NORTHERN AND WESTERN MISSOURI...

CITY           SKY/WX    TMP DP  RH WIND       PRES   REMARKS
KANSAS CTY INT PTCLDY     9   3  77 N20G25    30.29R WCI -10
6HR MIN TEMP:   9; 6HR MAX TEMP:  18; 6HR PCP: TRACE;

KANSAS C DTWN  PTCLDY    12   3  67 N13G22    30.31R WCI  -3
6HR MIN TEMP:  12; 6HR MAX TEMP:  21; 6HR PCP: TRACE;

LEE`S SUMMIT   CLEAR     11   3  70 N20G26    30.27R WCI  -7
6HR MIN TEMP:  11; 6HR MAX TEMP:  21; 6HR PCP: TRACE;

ST JOSEPH      CLEAR      7   0  73 N22G30    30.36R WCI -14
6HR MIN TEMP:   7; 6HR MAX TEMP:  17; 6HR PCP: TRACE;

CHILLICOTHE      N/A     11   1  64 N13G21    30.28R WCI  -4
6HR MIN TEMP:  11; 6HR MAX TEMP:  19;

KIRKSVILLE     CLOUDY    10   4  76 N13       30.22R WCI  -5
6HR MIN TEMP:  10; 6HR MAX TEMP:  16; 6HR PCP:  0.01;


$$
MOZ066>068-077>081-088>096-101>105-261300-
...SOUTHWEST MISSOURI...

CITY           SKY/WX    TMP DP  RH WIND       PRES   REMARKS
SPRINGFIELD    CLOUDY    20  15  81 N21       30.10R WCI   4
6HR MIN TEMP:  20; 6HR MAX TEMP:  38;

JOPLIN         CLOUDY    20  12  71 N21       30.20R WCI   4
6HR MIN TEMP:  20; 6HR MAX TEMP:  29;


$$
MOZ032>034-039>042-045>050-055>058-069>072-261300-
...CENTRAL MISSOURI...

CITY           SKY/WX    TMP DP  RH WIND       PRES   REMARKS
COLUMBIA       LGT SNOW  18  12  77 N21       30.14R WCI   1
6HR MIN TEMP:  18; 6HR MAX TEMP:  35; 6HR PCP: TRACE;

JEFFERSON CITY CLOUDY    19  13  77 N15G21    30.16R WCI   5
6HR MIN TEMP:  19; 6HR MAX TEMP:  38; 6HR PCP: TRACE;

ROLLA          CLOUDY    18  15  88 NW18G26   30.06R FOG     WCI   2
6HR MIN TEMP:  18; 6HR MAX TEMP:  36; 6HR PCP: TRACE;

SEDALIA        FLURRIES  16   9  74 N20       30.22R WCI  -1
6HR MIN TEMP:  16; 6HR MAX TEMP:  24; 6HR PCP: TRACE;

WHITEMAN AFB   MOCLDY    13   5  71 N17       30.22R WCI  -4
WARRENSBURG    CLEAR     14   5  67 N16G22    30.25R WCI  -2
OSAGE BEACH    CLOUDY    19  12  73 NW9G21    30.13R WCI   9

$$
MOZ051-052-059>065-261300-
...EAST CENTRAL MISSOURI...

CITY           SKY/WX    TMP DP  RH WIND       PRES   REMARKS
ST LOUIS INTL  LGT SNOW  26  21  81 N15G23    30.06R WCI  14
6HR MIN TEMP:  26; 6HR MAX TEMP:  33; 6HR PCP:  0.03;

SPIRIT OF STL  LGT SNOW  24  19  81 NW18      30.07R WCI  10
6HR MIN TEMP:  24; 6HR MAX TEMP:  34; 6HR PCP: TRACE;

ST CHARLES     LGT SNOW  23  19  85 N17       30.08R FOG     WCI   9
6HR MIN TEMP:  23; 6HR MAX TEMP:  31; 6HR PCP: TRACE;


$$
MOZ072>076-082>087-097>100-106>115-261300-
...SOUTH CENTRAL AND SOUTHEAST MISSOURI...

CITY           SKY/WX    TMP DP  RH WIND       PRES   REMARKS
CAPE GIRARDEAU CLOUDY    23  22  96 CALM      29.98R FOG
6HR MIN TEMP:  17; 6HR MAX TEMP:  23;

FARMINGTON     CLOUDY    28  25  86 N8        30.00R WCI  20
6HR MIN TEMP:  25; 6HR MAX TEMP:  28;

POPLAR BLUFF   CLOUDY    26  22  84 CALM      29.97R
6HR MIN TEMP:  21; 6HR MAX TEMP:  26;

WEST PLAINS    CLOUDY    24  20  84 NW20G26   30.01R WCI  10
6HR MIN TEMP:  24; 6HR MAX TEMP:  32;


$$



USA.gov is the U.S. government's official web portal to all federal, state and local government web resources and services.